When you browse on this site, cookies collect data to enhance your experience and personalize the content and advertising you see.
Visit our Privacy Policy to learn more. By continuing to use the site, you agree to this use of cookies and data.
  • în România
  • Lista ţărilor
  • Pe 7 zile
  • Temperatura apei
  • Hartă satelitară
  • Meteo pe hartă
  • Widget-uri
  • user-avatar
    Intrare

    Meteo pe oră la Arradon

    Astăzi, 26 Aprilie, Vineri

    Timp Temperatura Precipitaţii Vânt Presiune Umiditate
    00:00 +8°C° 0.2 mm 5 m/s 751 mmHg 90%
    01:00 +7°C° 0.1 mm 4 m/s 752 mmHg 90%
    02:00 +7°C° 0.1 mm 4 m/s 752 mmHg 91%
    03:00 +8°C° 0.1 mm 3 m/s 752 mmHg 92%
    04:00 +8°C° 0 mm 3 m/s 753 mmHg 93%
    05:00 +8°C° 0 mm 3 m/s 753 mmHg 93%
    06:00 +8°C° 0 mm 3 m/s 754 mmHg 94%
    07:00 +10°C° 0 mm 4 m/s 755 mmHg 88%
    08:00 +11°C° 0 mm 4 m/s 755 mmHg 83%
    09:00 +13°C° 0 mm 5 m/s 756 mmHg 78%
    10:00 +13°C° 0.2 mm 6 m/s 757 mmHg 76%
    11:00 +14°C° 0.2 mm 7 m/s 757 mmHg 74%
    12:00 +13°C° 0.2 mm 8 m/s 758 mmHg 72%
    13:00 +13°C° 0 mm 8 m/s 758 mmHg 70%
    14:00 +13°C° 0 mm 8 m/s 759 mmHg 67%
    15:00 +12°C° 0 mm 9 m/s 759 mmHg 65%
    16:00 +11°C° 0 mm 8 m/s 760 mmHg 69%
    17:00 +11°C° 0 mm 8 m/s 760 mmHg 72%
    18:00 +10°C° 0 mm 8 m/s 760 mmHg 76%
    19:00 +10°C° 0.2 mm 8 m/s 760 mmHg 80%
    20:00 +10°C° 0.2 mm 8 m/s 760 mmHg 84%
    21:00 +9°C° 0.2 mm 8 m/s 761 mmHg 89%
    22:00 +9°C° 0.4 mm 8 m/s 761 mmHg 88%
    23:00 +9°C° 0.4 mm 8 m/s 761 mmHg 88%

    Mâine, 27 Aprilie, Sâmbătă

    Timp Temperatura Precipitaţii Vânt Presiune Umiditate
    00:00 +9°C° 0.4 mm 8 m/s 761 mmHg 87%
    01:00 +9°C° 0 mm 8 m/s 761 mmHg 85%
    02:00 +8°C° 0 mm 7 m/s 761 mmHg 83%
    03:00 +6°C° 0 mm 7 m/s 762 mmHg 80%
    04:00 +6°C° 0 mm 7 m/s 762 mmHg 81%
    05:00 +5°C° 0 mm 6 m/s 763 mmHg 81%
    06:00 +5°C° 0 mm 6 m/s 763 mmHg 81%
    07:00 +7°C° 0 mm 6 m/s 764 mmHg 75%
    08:00 +9°C° 0 mm 7 m/s 764 mmHg 69%
    09:00 +10°C° 0 mm 7 m/s 765 mmHg 63%
    10:00 +10°C° 0 mm 7 m/s 765 mmHg 63%
    11:00 +10°C° 0 mm 7 m/s 765 mmHg 63%
    12:00 +10°C° 0 mm 7 m/s 765 mmHg 63%
    13:00 +10°C° 0 mm 7 m/s 765 mmHg 63%
    14:00 +11°C° 0 mm 7 m/s 766 mmHg 63%
    15:00 +11°C° 0 mm 7 m/s 766 mmHg 63%
    16:00 +10°C° 0 mm 7 m/s 766 mmHg 66%
    17:00 +10°C° 0 mm 6 m/s 766 mmHg 69%
    18:00 +9°C° 0 mm 6 m/s 766 mmHg 72%
    19:00 +8°C° 0 mm 5 m/s 767 mmHg 74%
    20:00 +7°C° 0 mm 5 m/s 767 mmHg 77%
    21:00 +6°C° 0 mm 5 m/s 767 mmHg 79%
    22:00 +6°C° 0 mm 4 m/s 767 mmHg 81%
    23:00 +6°C° 0 mm 4 m/s 767 mmHg 82%

    Poimâine, 28 Aprilie, Duminică

    Timp Temperatura Precipitaţii Vânt Presiune Umiditate
    00:00 +5°C° 0 mm 4 m/s 767 mmHg 83%
    01:00 +5°C° 0 mm 4 m/s 767 mmHg 84%
    02:00 +5°C° 0 mm 4 m/s 767 mmHg 85%
    03:00 +5°C° 0 mm 4 m/s 767 mmHg 85%
    04:00 +5°C° 0 mm 4 m/s 767 mmHg 86%
    05:00 +7°C° 0 mm 3 m/s 767 mmHg 86%
    06:00 +7°C° 0 mm 3 m/s 767 mmHg 86%
    07:00 +9°C° 0 mm 3 m/s 766 mmHg 81%
    08:00 +10°C° 0 mm 4 m/s 766 mmHg 76%
    09:00 +12°C° 0 mm 4 m/s 766 mmHg 71%
    10:00 +12°C° 0 mm 4 m/s 766 mmHg 73%
    11:00 +12°C° 0 mm 4 m/s 766 mmHg 74%
    12:00 +12°C° 0 mm 5 m/s 766 mmHg 75%
    13:00 +13°C° 0 mm 5 m/s 766 mmHg 75%
    14:00 +13°C° 0 mm 5 m/s 765 mmHg 75%
    15:00 +13°C° 0 mm 5 m/s 765 mmHg 75%
    16:00 +13°C° 0 mm 4 m/s 765 mmHg 77%
    17:00 +13°C° 0 mm 4 m/s 765 mmHg 79%
    18:00 +13°C° 0 mm 4 m/s 764 mmHg 80%
    19:00 +12°C° 0 mm 3 m/s 765 mmHg 83%
    20:00 +11°C° 0 mm 3 m/s 765 mmHg 86%
    21:00 +10°C° 0 mm 3 m/s 765 mmHg 89%
    22:00 +9°C° 0 mm 3 m/s 765 mmHg 90%
    23:00 +9°C° 0 mm 3 m/s 764 mmHg 91%

    29 Aprilie, Luni

    Timp Temperatura Precipitaţii Vânt Presiune Umiditate
    00:00 +8°C° 0 mm 3 m/s 764 mmHg 93%
    01:00 +8°C° 0 mm 2 m/s 764 mmHg 92%
    02:00 +8°C° 0 mm 2 m/s 764 mmHg 91%
    03:00 +7°C° 0 mm 2 m/s 763 mmHg 90%
    04:00 +8°C° 0 mm 2 m/s 763 mmHg 90%
    05:00 +8°C° 0 mm 2 m/s 763 mmHg 89%
    06:00 +8°C° 0 mm 2 m/s 763 mmHg 88%
    07:00 +11°C° 0 mm 1 m/s 763 mmHg 83%
    08:00 +12°C° 0 mm 1 m/s 763 mmHg 78%
    09:00 +14°C° 0 mm 1 m/s 763 mmHg 72%
    10:00 +15°C° 0 mm 1 m/s 762 mmHg 69%
    11:00 +16°C° 0 mm 2 m/s 762 mmHg 66%
    12:00 +17°C° 0 mm 3 m/s 762 mmHg 63%
    13:00 +17°C° 0 mm 3 m/s 762 mmHg 65%
    14:00 +17°C° 0 mm 3 m/s 761 mmHg 68%
    15:00 +16°C° 0 mm 3 m/s 761 mmHg 70%
    16:00 +16°C° 0.1 mm 3 m/s 761 mmHg 75%
    17:00 +15°C° 0.1 mm 2 m/s 761 mmHg 81%
    18:00 +14°C° 0.1 mm 2 m/s 761 mmHg 86%
    19:00 +13°C° 0 mm 2 m/s 761 mmHg 89%
    20:00 +12°C° 0 mm 3 m/s 761 mmHg 92%
    21:00 +11°C° 0 mm 3 m/s 761 mmHg 95%
    22:00 +10°C° 0 mm 3 m/s 761 mmHg 96%
    23:00 +10°C° 0 mm 3 m/s 761 mmHg 96%

    30 Aprilie, Marţi

    Timp Temperatura Precipitaţii Vânt Presiune Umiditate
    00:00 +9°C° 0 mm 3 m/s 761 mmHg 97%
    01:00 +8°C° 0 mm 4 m/s 761 mmHg 97%
    02:00 +7°C° 0 mm 4 m/s 760 mmHg 96%
    03:00 +7°C° 0 mm 4 m/s 760 mmHg 96%
    04:00 +7°C° 0 mm 4 m/s 760 mmHg 95%
    05:00 +7°C° 0 mm 4 m/s 760 mmHg 94%
    06:00 +7°C° 0 mm 4 m/s 760 mmHg 93%
    07:00 +10°C° 0 mm 4 m/s 760 mmHg 88%
    08:00 +11°C° 0 mm 4 m/s 760 mmHg 83%
    09:00 +13°C° 0 mm 4 m/s 760 mmHg 78%
    10:00 +14°C° 0 mm 4 m/s 760 mmHg 75%
    11:00 +14°C° 0 mm 3 m/s 760 mmHg 73%
    12:00 +16°C° 0 mm 3 m/s 759 mmHg 70%
    13:00 +16°C° 0.1 mm 3 m/s 759 mmHg 71%
    14:00 +16°C° 0.1 mm 3 m/s 759 mmHg 72%
    15:00 +16°C° 0.1 mm 2 m/s 758 mmHg 74%
    16:00 +16°C° 0 mm 2 m/s 758 mmHg 77%
    17:00 +15°C° 0 mm 2 m/s 758 mmHg 80%
    18:00 +15°C° 0 mm 2 m/s 757 mmHg 83%
    19:00 +14°C° 0 mm 2 m/s 757 mmHg 84%
    20:00 +13°C° 0 mm 2 m/s 758 mmHg 86%
    21:00 +12°C° 0 mm 2 m/s 758 mmHg 87%
    22:00 +12°C° 0 mm 2 m/s 758 mmHg 89%
    23:00 +10°C° 0 mm 2 m/s 758 mmHg 92%

    1 Mai, Miercuri

    Timp Temperatura Precipitaţii Vânt Presiune Umiditate
    00:00 +10°C° 0 mm 2 m/s 758 mmHg 94%
    01:00 +10°C° 0 mm 3 m/s 757 mmHg 94%
    02:00 +9°C° 0 mm 3 m/s 757 mmHg 94%
    03:00 +8°C° 0 mm 4 m/s 757 mmHg 94%
    04:00 +8°C° 0 mm 4 m/s 757 mmHg 93%
    05:00 +7°C° 0 mm 4 m/s 757 mmHg 93%
    06:00 +7°C° 0 mm 4 m/s 757 mmHg 92%
    07:00 +8°C° 0 mm 4 m/s 757 mmHg 86%
    08:00 +11°C° 0 mm 4 m/s 757 mmHg 81%
    09:00 +12°C° 0 mm 4 m/s 757 mmHg 75%
    10:00 +13°C° 0 mm 3 m/s 757 mmHg 71%
    11:00 +14°C° 0 mm 3 m/s 757 mmHg 66%
    12:00 +16°C° 0 mm 2 m/s 757 mmHg 62%
    13:00 +16°C° 0 mm 3 m/s 757 mmHg 63%
    14:00 +16°C° 0 mm 3 m/s 756 mmHg 63%
    15:00 +16°C° 0 mm 3 m/s 756 mmHg 64%
    16:00 +14°C° 0 mm 3 m/s 756 mmHg 68%
    17:00 +14°C° 0 mm 3 m/s 756 mmHg 72%
    18:00 +13°C° 0 mm 3 m/s 756 mmHg 77%
    19:00 +12°C° 0 mm 3 m/s 756 mmHg 81%
    20:00 +11°C° 0 mm 3 m/s 756 mmHg 86%
    21:00 +9°C° 0 mm 3 m/s 756 mmHg 90%
    22:00 +9°C° 0 mm 3 m/s 756 mmHg 89%
    23:00 +9°C° 0 mm 3 m/s 756 mmHg 88%
    Arată mai mult